Wind_Speed
11 11 11 9 9 11 10 11 10 8 7 7 8 9 11 14 16 17 19 22 25 27 29 31 32 32 32 31 31 29 28 27 26 24 23 22 21 21 20 20 20 19 19 18 17 17 17 16 15 14 14 12 11 10 9 9 8 8 9 10 10 11 11 12 13 14 15 15 15 15 15 15 15 15 16 17 17 17 17 18 18 19 19 18 18
13 12 12 12 11 12 11 12 12 10 8 7 9 11 12 14 16 18 19 21 24 26 28 30 31 32 32 32 32 31 30 28 27 25 25 23 23 22 22 22 21 21 20 19 18 17 18 17 17 16 15 14 12 12 11 10 10 10 11 12 12 12 12 13 13 14 14 14 15 15 15 15 15 15 16 17 17 17 17 18 18 18 17 17 18
16 14 13 14 13 13 13 13 13 11 11 10 10 12 12 13 15 17 19 20 22 25 27 29 30 32 33 33 32 32 31 30 28 27 26 25 24 24 23 23 22 22 21 20 19 18 18 18 17 17 16 15 14 14 13 12 12 12 13 13 12 12 12 12 12 13 13 14 14 14 14 15 15 15 16 17 17 17 17 17 17 17 17 17 17
19 16 15 15 13 13 13 14 14 13 13 13 12 12 11 11 13 15 17 18 20 22 24 26 29 31 32 33 33 32 32 31 30 29 28 27 26 25 25 24 24 23 22 22 21 20 19 18 18 17 17 16 16 15 14 13 13 14 13 13 12 11 11 11 11 13 13 14 14 14 14 14 15 15 16 17 17 17 17 17 17 16 16 17 18
20 18 16 16 15 14 15 15 15 16 16 16 14 13 12 11 11 12 14 16 18 20 23 24 26 30 32 33 34 33 32 32 31 31 30 29 28 27 26 25 25 24 23 23 22 21 20 19 18 18 18 17 17 16 15 14 14 14 13 11 11 10 10 10 12 13 14 14 14 14 14 14 15 16 17 17 17 16 16 16 16 16 17 18 19
22 21 20 18 17 16 17 17 17 18 18 17 16 14 14 13 12 12 13 14 16 18 21 23 25 28 31 33 34 34 34 33 33 32 31 30 29 28 27 26 26 25 24 24 23 22 21 20 19 19 19 18 17 16 16 16 14 13 11 10 10 10 10 11 12 13 14 15 15 15 15 15 16 17 16 17 16 16 16 15 15 16 17 19 20
23 24 24 22 20 19 18 18 18 19 18 17 17 16 16 16 15 14 13 13 14 16 19 22 23 25 29 32 33 35 35 35 35 34 33 32 31 30 29 28 27 26 25 24 23 22 21 20 20 20 19 18 18 17 17 15 14 12 10 10 10 11 11 11 12 14 15 16 16 15 15 16 17 17 16 16 15 15 15 15 15 16 18 19 21
25 25 26 26 24 22 21 20 19 20 19 18 17 17 18 18 18 17 15 14 15 17 18 20 22 24 27 30 32 34 36 36 36 35 34 34 33 32 31 30 29 27 26 25 24 23 22 21 21 20 19 19 18 17 16 14 13 12 11 11 11 12 12 12 14 15 16 16 16 16 16 16 17 16 15 14 14 14 14 14 15 16 18 20 21
28 27 28 28 28 26 24 24 23 22 22 21 20 19 18 19 20 19 18 16 17 19 19 20 21 23 25 28 31 33 35 37 37 37 37 36 35 34 32 31 30 29 27 26 26 24 23 22 21 21 20 18 18 17 15 14 14 13 12 12 13 13 13 13 15 16 16 17 17 16 16 17 16 15 14 13 13 13 13 14 15 16 18 20 22
33 31 31 30 29 29 28 27 27 26 24 24 23 22 21 20 20 21 20 18 19 21 21 21 22 23 25 27 29 32 33 36 37 38 39 38 37 36 34 33 32 30 29 28 27 26 24 23 22 21 20 19 18 17 16 15 15 15 14 14 14 14 14 14 15 16 17 17 17 16 16 16 16 14 12 12 12 12 12 14 15 17 18 21 24
38 36 35 32 31 31 31 30 30 30 28 27 26 26 25 23 22 22 21 20 21 23 23 22 23 24 25 26 28 31 33 35 37 38 39 40 39 38 37 35 34 33 31 30 28 27 26 24 23 22 21 20 19 18 17 17 18 17 16 16 15 15 15 15 16 17 17 17 17 16 15 16 15 13 11 11 11 11 12 14 16 17 19 22 25
41 39 38 36 34 32 33 33 33 33 32 30 30 30 29 26 26 25 23 23 24 26 25 23 24 26 26 27 28 30 33 35 36 37 39 41 41 40 39 38 37 35 34 32 30 29 28 26 25 24 23 22 20 20 19 20 20 19 19 18 17 16 16 17 18 17 17 17 17 16 15 15 14 12 11 10 10 11 13 15 16 18 21 23 26
43 42 40 39 38 35 34 34 34 35 35 33 33 33 32 28 28 28 26 26 28 28 26 24 25 27 27 28 29 29 31 34 35 37 38 40 41 41 41 40 39 38 36 35 33 31 30 29 27 26 25 24 23 23 22 23 23 22 21 21 19 18 18 19 19 18 17 17 17 15 14 14 13 12 10 10 10 11 13 16 17 19 22 24 26
42 44 43 42 41 39 37 35 34 36 38 37 35 34 32 31 31 31 29 30 31 30 28 27 27 28 28 27 29 31 32 33 34 36 37 38 39 41 42 42 41 40 38 37 36 35 33 32 30 29 28 27 26 26 25 25 26 25 23 22 21 20 20 20 21 20 18 17 16 15 14 14 13 11 11 10 10 12 14 16 18 20 23 25 27
39 42 44 44 44 43 41 40 37 35 37 38 39 36 33 35 36 33 32 33 33 31 30 30 27 27 29 29 30 31 32 33 33 33 34 35 37 40 41 43 42 41 40 39 39 38 36 35 34 32 30 29 28 28 28 28 28 27 25 24 23 22 22 21 22 21 19 18 16 15 14 14 13 11 11 10 11 13 16 17 19 21 24 26 28
36 39 42 45 46 46 45 45 42 38 37 39 40 39 36 38 37 34 34 36 35 34 33 32 29 27 29 30 30 30 32 33 33 31 32 33 35 37 39 41 42 42 42 42 41 41 39 38 37 35 34 32 31 30 30 31 30 28 26 25 24 24 23 22 22 21 20 18 16 15 14 14 13 12 11 10 12 14 17 18 19 22 24 26 28
36 37 39 41 44 46 47 47 46 43 41 41 40 38 37 40 40 37 38 37 35 36 36 33 30 28 29 28 29 31 30 30 32 33 33 34 34 35 38 39 41 42 42 42 43 42 40 39 39 38 37 35 34 33 33 33 32 29 28 26 26 26 24 23 23 22 20 18 16 15 15 14 13 12 11 11 13 16 17 18 20 22 24 26 27
37 38 38 39 41 43 45 47 48 47 46 45 43 41 40 41 40 40 41 37 33 37 40 36 31 30 30 29 28 30 28 27 30 32 34 36 35 35 36 37 39 40 41 42 43 43 41 41 40 39 38 37 36 36 35 35 33 31 29 28 27 26 24 23 23 22 20 18 16 15 15 14 13 12 11 12 14 16 17 18 21 23 24 26 27
36 37 38 39 40 41 43 44 46 47 48 48 47 45 44 43 41 42 43 41 39 39 41 38 33 31 31 31 29 29 28 27 29 28 30 34 37 36 35 36 37 38 39 41 42 44 43 42 40 39 38 38 38 38 37 36 34 32 31 29 28 26 24 24 24 22 20 18 17 16 15 15 14 12 11 13 14 16 17 19 21 23 25 26 27
33 35 37 39 40 41 42 43 44 45 46 48 48 47 47 46 45 44 43 43 43 41 39 39 37 32 32 32 31 29 27 28 30 28 26 27 31 36 38 36 37 37 37 39 40 42 43 42 40 38 38 39 39 38 37 36 34 33 32 30 29 27 25 25 24 22 20 19 18 17 16 15 14 12 12 13 15 16 17 20 22 24 25 26 27
31 33 35 37 39 40 41 43 43 44 44 45 46 46 47 47 47 47 46 44 44 41 39 40 39 36 35 35 33 30 29 29 30 30 28 24 22 29 37 38 38 38 37 37 38 39 40 39 38 38 38 39 39 38 37 36 35 34 33 31 29 27 25 25 24 22 20 19 19 18 17 16 14 13 13 14 15 16 18 20 22 23 24 25 26
30 32 34 36 38 39 40 42 43 44 44 44 44 45 45 46 45 46 46 45 45 44 43 43 42 40 38 39 37 33 31 30 29 30 31 29 23 24 32 37 37 38 38 36 36 37 37 37 36 36 37 37 37 37 36 35 35 34 32 30 28 27 25 25 24 22 21 20 19 18 18 17 15 14 14 15 15 17 19 21 23 24 24 25 26
30 31 33 35 37 38 40 41 42 43 44 44 44 44 45 44 44 44 43 44 45 47 47 46 46 45 41 41 41 36 32 31 30 28 29 30 28 26 30 34 35 37 38 37 36 36 36 36 35 34 35 36 36 35 35 35 34 32 30 29 28 27 26 25 24 23 21 20 19 19 19 17 16 15 15 15 16 18 20 22 23 24 24 25 26
29 31 32 34 36 37 39 40 41 42 43 44 44 44 45 45 44 44 43 44 45 46 47 46 47 49 46 43 42 39 34 31 29 28 27 28 28 28 27 29 32 36 38 38 38 37 37 36 35 34 34 34 34 34 34 33 32 30 29 29 28 27 26 25 24 23 22 20 20 20 20 18 17 16 16 16 17 19 21 22 23 24 24 25 27
29 30 32 33 35 36 37 39 40 41 41 43 44 44 45 45 45 45 43 43 43 44 45 44 45 50 48 43 41 40 38 34 31 30 28 27 27 27 25 22 24 31 37 40 38 38 38 38 36 35 34 34 34 34 33 31 30 29 28 29 28 27 27 25 24 23 22 21 21 21 21 19 18 17 17 17 18 20 22 23 24 24 25 26 27
28 30 32 33 34 35 37 38 39 40 40 41 42 43 44 44 44 45 44 43 41 41 42 41 43 47 48 44 42 42 41 38 36 33 30 29 28 28 27 22 19 23 31 38 39 39 39 40 39 36 36 36 35 32 30 29 28 28 28 28 29 28 27 25 24 23 23 22 22 22 22 20 18 18 18 18 19 21 23 24 24 24 25 26 27
29 30 31 33 34 35 36 38 38 39 40 40 40 41 42 44 44 44 44 43 42 42 40 39 40 44 47 47 45 45 43 41 41 37 32 31 30 29 29 26 22 23 26 31 36 40 41 41 41 39 39 36 33 30 28 28 27 27 28 28 29 28 27 25 24 23 24 23 23 23 22 20 19 19 19 19 20 22 24 24 24 24 25 26 27
29 30 31 33 34 35 36 37 38 39 40 40 40 40 41 43 44 44 44 44 44 43 41 40 41 44 46 46 45 46 46 46 44 40 37 34 32 30 30 29 28 27 26 27 32 37 42 44 42 40 40 35 30 30 29 28 27 28 29 29 29 28 26 25 24 24 24 24 24 23 22 20 19 20 20 21 22 23 24 24 24 24 25 26 27
29 31 32 33 35 36 36 37 38 39 41 41 40 40 40 41 42 44 44 44 45 44 44 45 46 47 46 44 43 44 44 46 47 44 41 39 36 33 31 32 32 29 24 25 31 34 38 44 44 40 38 35 32 32 31 28 28 29 29 29 28 27 26 25 25 25 25 24 24 23 22 20 20 21 21 22 23 24 25 25 25 24 25 26 27
30 31 32 34 35 36 37 38 38 39 40 41 42 41 41 41 41 42 43 43 45 46 46 47 46 45 44 43 45 45 43 43 46 46 43 40 38 35 32 31 33 34 27 22 26 32 35 41 44 40 37 35 34 33 31 30 30 30 30 28 27 26 26 26 26 26 25 24 23 23 22 21 21 22 23 23 24 25 25 25 24 24 25 26 28
33 33 33 33 35 37 38 39 39 40 40 41 42 42 42 42 41 41 42 43 44 46 47 47 47 47 47 48 50 48 45 43 44 44 42 40 40 37 34 32 33 37 35 27 25 28 34 42 43 40 36 34 34 34 33 33 33 32 30 28 26 26 26 27 26 26 25 24 23 23 21 21 22 23 24 24 24 25 25 24 24 24 25 26 28
36 36 35 34 35 37 39 39 40 41 41 41 42 43 44 44 44 43 42 42 43 44 45 47 48 49 50 50 48 46 47 45 43 44 42 42 43 41 37 34 34 36 37 36 32 28 32 39 41 40 37 33 34 35 35 35 35 33 31 28 27 27 27 26 25 26 25 24 23 22 21 22 23 24 24 24 25 25 25 24 24 24 25 27 28
39 39 38 37 36 36 38 40 41 41 42 43 43 44 45 45 46 45 43 43 43 43 44 45 47 50 51 50 47 45 47 47 46 46 45 44 46 45 41 37 36 37 37 38 37 31 30 33 35 39 39 35 35 36 36 36 35 34 31 28 27 27 26 25 25 25 24 23 23 22 22 23 24 25 25 25 25 25 24 24 24 24 25 27 28
39 39 39 39 38 37 37 39 41 42 43 44 45 46 46 47 47 47 46 44 44 43 44 44 45 48 51 52 48 45 46 48 47 47 46 46 47 46 44 41 39 39 38 37 36 34 34 34 34 36 37 37 38 37 37 36 35 33 31 28 28 26 25 24 24 23 23 23 23 23 23 24 24 25 25 25 25 24 24 25 24 25 26 27 28
39 38 38 39 39 38 37 38 40 42 43 45 46 47 48 48 48 48 48 47 45 44 44 44 44 46 49 52 51 47 46 47 46 46 47 48 47 46 45 44 42 40 39 38 36 35 36 39 39 35 33 36 39 38 37 37 36 34 31 29 29 27 25 25 23 23 23 23 23 23 23 23 24 25 25 25 24 24 25 25 25 25 27 28 29
38 37 37 37 38 38 37 37 39 42 44 45 47 48 49 50 50 50 50 49 47 45 44 43 43 44 46 49 51 49 47 47 45 45 49 49 47 46 45 45 46 44 41 39 36 35 35 37 38 34 32 36 39 38 38 38 37 34 31 30 30 28 28 26 23 22 22 22 23 23 23 23 24 25 24 24 24 25 25 25 25 26 28 30 30
37 37 37 36 36 36 36 36 37 41 44 45 47 49 50 51 51 51 52 51 50 48 46 45 44 44 45 47 50 49 47 49 48 46 48 49 48 47 46 46 47 46 44 40 36 35 36 38 37 33 32 36 39 38 39 39 38 35 33 32 30 29 29 27 23 22 22 23 23 22 22 23 24 25 24 24 25 26 26 25 26 28 30 31 32
36 36 36 36 35 34 34 35 36 39 43 45 47 49 51 52 51 52 53 53 53 51 50 48 46 45 45 45 48 49 48 50 53 51 50 50 50 49 47 47 48 47 44 41 37 35 37 39 38 34 34 37 39 39 39 39 37 35 33 32 31 31 29 25 23 23 23 23 22 22 23 24 24 25 24 25 26 26 26 26 27 29 31 32 33
36 36 36 36 35 34 33 34 35 37 40 44 47 49 50 51 52 52 52 53 54 54 53 52 50 48 47 45 47 50 50 50 54 56 53 50 49 49 48 49 50 49 46 42 39 37 38 40 39 35 35 38 39 39 39 38 37 36 35 33 31 30 27 25 24 25 24 23 22 23 23 23 24 24 24 26 26 26 27 27 28 30 32 33 34
36 35 35 36 36 35 35 34 34 36 39 42 45 48 49 51 51 51 52 53 54 55 55 54 53 51 49 48 47 49 51 51 52 54 53 51 49 49 50 52 52 51 48 45 41 39 40 41 39 37 37 39 40 40 40 40 40 39 37 34 30 29 28 27 26 26 24 24 24 23 23 23 24 25 26 26 27 27 27 27 28 31 33 34 34
36 35 35 36 37 37 37 37 37 37 39 41 43 45 47 49 50 50 50 51 53 54 55 55 55 54 52 50 48 49 51 53 52 53 54 53 50 50 52 53 53 51 50 47 43 41 42 43 42 39 40 40 41 42 42 40 39 37 34 32 30 30 29 28 27 26 25 25 24 23 22 23 25 26 27 27 26 27 28 27 29 32 34 34 34
35 35 35 37 38 38 39 40 40 41 41 42 43 43 45 46 49 50 50 51 52 54 55 55 55 55 53 51 49 49 50 52 53 54 56 56 52 50 51 53 55 55 52 49 46 43 44 46 44 42 42 42 42 42 41 39 36 34 32 31 31 30 29 28 28 26 26 25 23 23 23 25 26 27 28 28 26 27 28 28 30 33 34 35 35
35 36 37 38 38 40 41 42 43 43 44 43 43 43 44 45 47 50 51 51 52 53 54 54 54 54 54 52 50 49 50 51 52 54 56 57 56 53 52 55 58 57 53 51 49 46 47 47 44 43 43 43 42 41 40 38 36 34 33 32 32 31 30 29 28 27 26 25 24 24 25 26 28 28 29 29 27 27 28 29 31 33 34 35 35
36 37 37 38 39 41 43 45 46 47 46 45 44 43 44 45 47 50 52 52 52 53 54 54 53 53 53 53 50 48 49 50 51 53 54 56 58 56 54 55 57 56 54 54 53 51 50 48 45 44 44 43 41 41 40 37 34 34 35 35 34 32 30 29 29 28 26 25 25 26 26 27 29 29 29 29 28 28 29 30 32 34 35 35 35
38 39 39 40 42 44 46 48 50 51 51 49 46 44 44 45 47 49 52 54 54 54 55 54 52 52 52 52 50 48 48 49 50 51 52 55 57 56 54 55 56 56 56 58 58 55 52 48 45 45 44 42 41 42 41 38 33 33 36 36 32 31 31 30 30 29 27 27 27 28 28 27 28 30 30 29 29 29 29 31 33 35 36 36 35
40 41 42 44 45 47 49 51 52 53 53 52 50 47 45 45 47 49 52 55 55 55 55 54 52 51 52 52 50 48 47 47 48 50 50 53 57 57 55 55 57 57 56 56 58 57 54 50 47 45 45 43 41 41 40 39 35 32 35 35 32 32 31 30 30 29 29 30 29 27 29 28 27 29 30 28 29 30 30 32 35 36 36 36 35
42 43 45 47 49 51 53 53 53 53 53 53 51 49 47 45 47 49 52 55 57 56 56 54 52 52 52 52 49 47 46 46 47 48 49 51 55 58 57 55 56 56 53 52 54 54 53 52 49 48 46 45 44 42 40 40 38 34 36 38 36 35 33 31 32 32 31 30 28 27 30 30 27 28 30 29 30 31 31 33 36 35 35 35 34
42 45 47 50 53 55 55 54 53 53 52 51 50 49 47 46 46 49 53 56 57 57 57 55 53 52 52 52 49 46 44 43 45 47 48 49 53 57 58 57 56 56 54 51 50 51 53 54 52 50 49 48 48 45 41 41 38 34 38 44 41 38 34 31 33 34 31 29 27 27 31 30 27 28 30 30 31 32 33 34 35 35 34 34 33
42 45 49 52 55 55 55 52 51 50 49 47 47 46 46 45 47 50 53 56 58 58 57 55 54 53 53 52 50 46 42 42 45 47 47 48 51 55 58 59 57 57 57 54 50 50 54 55 53 52 51 50 50 46 43 42 38 31 35 44 44 38 35 32 32 32 29 27 27 28 31 30 27 28 31 30 31 34 34 33 34 34 33 33 33
43 47 50 53 55 54 52 47 45 47 47 45 44 44 43 43 46 49 52 55 57 57 56 55 55 55 55 54 53 49 44 42 45 47 47 47 50 54 57 59 58 58 60 57 51 50 53 54 54 54 52 51 50 49 45 41 37 31 32 39 42 39 36 34 33 32 29 29 29 29 30 29 26 29 32 31 32 34 34 33 32 32 32 32 32
45 48 50 53 53 49 45 42 42 45 45 43 43 42 40 41 45 48 50 53 55 56 56 56 57 57 56 56 55 52 48 45 45 46 46 46 49 53 55 57 58 58 58 55 51 51 53 54 55 55 53 50 50 50 45 39 36 33 32 35 39 39 36 34 32 30 29 29 28 28 28 28 27 30 31 32 34 35 33 33 32 31 30 31 31
Wind_Direction
210 209 215 217 214 215 216 218 215 222 235 223 219 213 198 200 200 199 201 202 203 203 202 203 205 207 209 210 211 211 210 210 211 211 212 213 213 215 219 222 226 229 230 228 225 224 226 227 228 229 230 231 234 238 244 251 259 268 279 289 296 304 312 318 321 319 318 319 321 323 324 325 328 331 334 336 338 340 340 340 340 340 342 343 345
222 214 218 224 213 209 212 218 222 225 231 219 209 209 202 200 202 202 202 204 206 206 206 206 207 209 211 213 214 215 214 214 214 216 218 219 220 221 224 228 231 235 237 236 232 228 228 229 230 232 234 235 239 243 248 255 263 273 281 288 294 301 309 314 316 315 317 321 324 325 325 327 330 333 335 337 338 339 339 339 339 339 341 342 345
229 222 219 223 214 208 210 215 222 225 227 223 209 207 206 202 202 203 204 206 208 210 209 209 211 211 213 215 217 218 218 218 217 218 221 223 225 226 228 231 234 237 239 239 237 234 232 231 231 233 236 238 241 244 249 257 266 273 279 285 293 300 307 311 314 317 321 325 327 326 326 327 330 333 334 335 337 338 338 337 337 338 340 343 347
235 229 225 226 217 210 213 215 218 223 226 225 216 210 211 205 203 205 205 206 208 211 212 213 214 215 215 216 218 220 221 222 221 220 221 223 226 227 229 231 234 237 238 239 238 237 235 233 233 233 236 239 242 245 251 258 266 272 278 284 292 299 306 312 317 321 325 327 327 325 325 327 329 332 333 334 335 336 337 336 336 337 339 343 348
240 237 232 231 225 216 220 222 217 222 226 226 221 215 216 212 207 209 209 209 209 210 213 214 216 218 218 218 219 220 221 223 224 223 223 224 225 227 228 229 232 233 235 237 238 238 238 236 235 235 237 239 243 247 252 258 265 270 276 283 290 299 306 315 321 323 326 327 326 325 323 325 327 330 332 333 334 335 336 336 336 336 339 345 347
238 237 235 234 231 224 225 226 221 221 225 227 227 221 221 222 217 217 214 214 214 213 214 214 217 221 221 221 220 220 221 223 225 225 225 225 226 227 228 228 230 231 232 234 236 238 239 238 237 237 238 240 244 248 253 258 262 266 273 282 290 298 307 316 320 323 326 326 324 323 322 324 327 330 331 332 333 335 336 336 336 336 340 345 344
233 233 234 235 235 231 230 233 230 226 225 227 231 228 225 227 228 227 222 222 223 220 218 216 216 221 223 223 223 221 222 223 225 227 227 228 228 227 228 228 228 229 230 231 234 237 239 239 238 239 240 242 245 249 253 257 259 263 272 282 289 298 306 314 318 321 324 324 323 321 321 324 327 329 330 332 333 335 337 335 333 336 341 342 340
236 233 233 235 237 235 233 236 238 236 233 230 231 232 230 230 232 233 231 233 234 227 224 223 219 220 224 225 225 224 223 224 225 227 229 230 230 230 229 229 229 229 229 229 231 234 237 238 238 239 240 242 245 248 251 255 258 264 272 279 287 294 302 310 314 319 321 322 321 319 321 325 328 328 330 332 334 335 335 332 332 337 340 338 335
240 239 236 236 237 236 234 236 240 242 242 238 235 235 234 233 234 237 236 236 241 236 228 228 226 223 223 225 226 226 225 225 225 227 229 231 232 232 231 231 231 231 230 230 231 233 235 237 238 239 240 241 244 247 251 255 260 266 272 277 284 292 301 307 311 314 317 318 318 317 321 326 327 327 329 332 334 334 331 328 332 336 336 334 334
241 242 241 240 239 237 235 236 240 244 244 244 243 242 239 236 236 239 238 235 240 244 236 230 230 228 226 225 226 226 226 227 227 227 228 231 233 234 234 234 233 233 233 233 233 233 235 237 239 239 240 241 243 247 252 258 263 267 272 277 283 291 299 304 308 312 313 314 315 316 321 326 324 324 328 332 333 330 326 326 331 333 332 332 335
242 242 243 244 244 240 236 236 240 244 244 244 246 246 245 243 240 239 240 235 234 241 242 236 232 232 229 227 226 226 226 226 227 228 228 231 233 235 236 236 236 236 236 236 236 236 236 237 239 240 242 243 245 249 254 261 265 268 272 278 282 289 296 301 305 308 309 311 311 313 320 322 319 320 326 331 331 326 323 325 328 329 330 332 335
243 243 242 244 246 244 241 238 239 243 243 244 246 246 245 247 246 243 241 238 234 237 241 240 238 236 232 230 228 227 227 226 226 227 228 230 232 234 237 238 238 238 238 238 238 238 238 238 240 242 243 245 248 251 255 260 264 268 272 276 280 286 293 297 301 304 305 307 307 310 317 318 315 317 323 327 326 320 320 323 325 326 328 331 335
244 244 243 242 244 246 246 243 242 244 244 244 246 246 243 245 248 247 243 239 236 237 240 242 242 240 236 234 233 231 230 228 227 227 228 229 231 233 235 237 239 240 240 241 241 242 241 241 241 242 244 245 249 252 255 259 262 266 270 274 279 284 290 294 298 300 302 302 303 307 313 312 311 313 319 323 319 316 318 320 322 324 326 330 335
244 245 245 244 243 244 247 246 244 245 244 242 244 246 245 245 247 249 247 241 236 235 238 241 242 244 242 239 237 235 233 231 229 228 228 229 231 232 234 236 238 240 242 243 244 244 244 244 244 244 245 245 248 253 256 259 261 264 268 273 277 282 286 291 294 296 298 298 298 304 308 306 306 310 315 316 312 313 316 317 319 322 325 330 337
244 244 244 245 245 245 246 247 246 244 244 243 242 242 243 244 245 245 246 245 237 230 234 238 237 241 244 242 239 237 236 234 232 231 231 230 231 232 234 235 237 239 241 243 244 245 245 246 247 247 248 248 250 253 255 257 260 263 267 271 275 279 282 286 290 292 293 293 294 299 301 300 302 307 311 311 309 311 313 315 317 320 325 332 338
245 244 243 244 245 246 246 248 249 246 243 243 243 243 241 242 244 244 245 248 244 233 231 234 233 236 242 243 244 243 240 236 235 234 233 233 232 232 234 235 237 238 239 241 243 244 245 246 248 250 251 252 252 253 254 256 259 262 265 268 272 275 278 282 285 288 288 288 290 293 294 295 299 303 307 307 308 309 311 313 316 319 325 333 338
246 245 244 244 244 246 246 248 250 249 246 244 245 246 244 242 244 245 246 250 250 239 232 231 229 233 239 241 243 245 243 242 240 236 235 234 233 232 232 233 235 237 238 240 242 244 245 246 247 249 250 252 253 253 254 256 259 261 263 265 268 271 274 278 281 282 282 282 284 287 289 291 294 299 303 305 306 307 308 311 313 319 325 331 337
247 246 246 245 244 245 245 246 247 249 250 248 247 246 245 245 245 246 247 248 250 242 235 232 228 229 237 238 241 244 243 244 243 241 239 236 234 233 233 232 233 235 237 239 241 243 244 245 246 247 248 249 250 251 253 255 257 259 261 263 265 268 271 274 276 277 276 277 279 282 283 286 289 294 298 301 303 304 305 309 312 318 324 329 335
248 247 246 246 245 244 244 245 245 246 248 249 249 248 247 248 247 247 249 249 251 245 235 234 230 228 236 239 239 242 242 241 242 244 245 241 237 236 235 234 234 234 236 238 240 241 242 244 245 246 247 247 248 249 250 253 255 257 259 261 262 265 267 269 271 271 271 273 275 277 279 280 284 289 294 296 299 301 303 308 313 318 323 328 333
255 252 250 248 246 245 244 244 244 245 246 247 249 248 248 249 248 249 251 250 253 248 235 237 238 231 234 239 238 239 239 239 240 241 246 247 243 240 237 236 235 234 235 237 238 240 241 242 243 245 245 246 246 247 249 250 253 255 257 259 260 262 264 266 268 268 268 270 273 275 275 276 280 284 288 292 295 298 302 308 313 318 323 327 330
261 260 257 254 250 248 246 245 244 244 245 246 248 248 248 249 249 250 251 252 256 249 234 235 241 235 233 236 237 236 235 235 237 238 241 245 246 243 240 237 237 236 236 237 237 239 240 239 240 242 243 244 245 246 247 249 251 253 255 256 258 260 261 262 265 266 266 268 271 273 273 273 276 278 283 288 291 296 302 308 312 317 321 325 329
263 262 262 260 257 254 251 248 246 245 245 245 246 248 248 249 249 249 251 252 255 252 242 236 237 238 237 235 235 234 232 232 233 234 237 241 243 246 244 240 239 239 238 238 238 239 238 237 236 239 241 243 245 245 246 248 249 252 253 254 255 256 257 260 262 263 264 266 269 271 271 270 271 274 279 284 288 295 302 306 309 315 320 323 327
263 263 263 263 261 260 257 253 249 247 247 246 246 247 248 249 249 249 249 249 251 253 251 245 239 239 240 237 235 233 231 231 231 233 237 241 243 247 250 247 242 240 240 238 237 237 237 235 234 235 240 241 243 244 245 246 248 250 250 250 251 252 253 256 259 261 262 264 266 268 268 268 268 271 276 280 286 295 300 303 308 314 319 322 325
262 262 263 263 263 262 261 259 255 251 248 247 247 246 247 248 249 249 248 247 249 250 251 249 244 242 240 236 234 233 231 229 228 230 234 238 241 244 249 249 244 242 241 237 236 236 235 234 233 233 236 239 241 243 244 246 248 248 246 246 247 248 250 253 257 258 259 261 263 264 265 266 266 268 272 278 285 294 298 301 307 314 318 320 323
262 261 261 262 263 263 262 261 260 256 252 249 248 247 247 247 248 249 249 248 248 249 250 250 247 246 244 239 236 233 231 230 227 227 230 231 235 240 242 243 242 242 242 239 235 235 235 233 231 230 232 235 238 240 242 245 247 247 245 245 245 246 248 251 254 256 258 259 260 262 263 264 263 266 270 275 283 291 295 299 307 313 317 319 322
263 262 261 260 260 262 263 262 261 259 257 253 249 248 247 247 247 247 248 248 246 246 247 248 247 248 247 243 240 235 230 230 228 227 228 228 229 235 239 238 237 237 240 241 237 234 235 234 232 229 229 232 234 236 240 243 245 247 247 246 246 246 247 250 251 254 256 256 258 260 261 263 262 263 267 274 282 289 293 298 305 312 315 318 321
264 262 261 260 259 259 260 262 262 261 259 256 253 249 247 247 247 246 246 247 246 244 244 245 245 246 247 247 246 241 233 229 227 224 225 228 227 231 237 237 236 236 236 238 238 235 233 234 233 231 231 231 232 234 238 241 244 246 246 246 245 246 248 249 250 252 254 254 256 259 261 262 262 262 267 274 282 287 291 297 304 310 313 316 319
267 263 261 260 259 258 257 258 260 261 261 259 256 252 248 246 245 246 246 245 246 245 242 241 241 243 248 250 249 245 238 232 229 226 225 228 227 226 231 234 236 240 237 234 236 235 234 233 232 232 234 232 231 234 236 239 243 245 245 245 245 247 248 249 250 251 252 254 256 259 261 263 262 263 267 274 281 286 290 296 303 308 311 314 318
273 267 263 260 259 258 257 255 256 257 259 260 258 255 251 248 245 244 244 244 245 244 242 240 240 244 248 250 250 250 245 238 234 231 228 230 227 221 225 232 235 239 238 233 235 235 235 235 232 231 234 232 229 232 234 236 241 243 244 244 246 248 249 248 249 250 252 254 257 259 261 262 262 263 267 273 279 285 290 295 301 305 308 313 317
282 274 267 262 260 259 257 256 254 254 255 257 258 257 254 251 247 245 242 242 243 244 243 242 241 242 244 245 247 251 252 247 240 236 234 233 230 223 221 227 233 237 236 234 236 237 237 237 234 231 232 232 231 232 233 235 239 241 242 244 246 247 247 246 248 249 251 254 256 258 260 261 261 262 267 273 278 283 288 293 299 302 307 313 317
287 282 275 268 263 260 259 257 255 253 253 254 255 256 256 253 250 247 243 241 241 242 243 244 242 241 239 240 243 247 251 249 243 239 238 235 232 229 225 225 230 236 237 235 236 239 240 239 237 232 230 232 234 233 232 234 238 240 240 242 244 244 244 245 247 250 251 253 255 257 259 260 259 262 266 272 278 282 287 292 296 300 307 314 317
288 285 282 276 269 262 260 259 257 255 253 252 252 253 254 254 252 249 245 242 241 241 241 243 243 243 241 240 242 244 246 247 243 237 234 231 231 232 231 228 229 233 236 237 236 237 242 243 240 235 231 231 234 233 232 233 236 238 240 241 242 241 243 246 249 251 252 253 254 256 257 257 258 262 267 273 277 281 285 290 294 300 308 315 317
289 288 285 282 276 268 262 259 258 256 254 252 252 251 251 253 253 252 248 245 243 242 241 241 242 243 243 241 239 238 242 244 242 237 232 229 231 234 233 228 227 229 233 237 237 235 239 242 241 236 230 229 232 232 232 233 234 237 240 241 240 239 242 248 250 251 251 251 252 253 253 254 258 264 269 273 276 279 285 289 294 302 311 315 316
290 288 287 284 280 274 267 260 257 256 255 253 251 251 250 250 252 253 251 248 245 244 243 241 240 241 243 242 238 234 235 239 240 239 235 230 229 232 233 228 226 227 229 234 235 234 234 236 237 235 229 227 230 230 230 232 234 236 238 240 240 239 243 249 249 248 247 246 247 248 248 252 259 265 269 271 274 279 285 289 296 305 311 314 316
291 289 287 285 282 278 271 263 257 254 253 252 251 251 250 250 250 251 252 250 247 244 244 243 242 241 241 242 240 234 231 235 238 238 237 233 229 229 231 229 226 224 226 230 231 232 236 238 238 236 229 227 230 230 230 230 231 233 234 235 238 239 244 248 247 244 243 242 242 243 247 254 262 266 268 270 275 280 285 290 299 306 311 313 315
293 290 288 286 284 281 275 266 258 253 251 250 250 250 250 250 249 249 250 251 249 246 244 243 243 242 241 241 241 236 231 232 235 237 237 235 230 227 228 229 226 223 224 228 228 230 235 239 239 234 228 228 230 230 230 229 230 230 229 230 234 239 244 244 242 242 242 240 240 243 251 259 263 265 267 271 276 281 286 293 301 307 311 313 314
293 292 290 287 284 282 278 270 261 253 249 248 248 248 248 249 249 249 249 249 250 248 246 244 243 243 241 239 239 237 232 228 228 232 236 236 232 226 225 226 224 221 223 226 226 226 230 236 238 232 227 228 229 229 229 229 229 227 225 226 230 236 240 240 240 242 240 238 241 248 256 261 263 265 268 273 278 282 288 295 302 307 311 312 313
291 290 289 287 284 282 279 274 265 256 251 248 246 246 246 247 248 248 248 248 249 249 248 246 245 245 243 240 238 237 234 228 225 227 231 234 232 228 224 221 220 220 222 224 224 224 228 234 236 232 227 228 229 229 228 228 228 226 224 227 230 234 238 238 239 240 237 238 244 251 257 261 264 268 272 276 280 285 290 296 303 307 310 311 311
289 288 286 285 284 282 280 277 272 265 257 251 247 245 244 245 246 247 247 248 248 249 249 249 248 247 246 242 237 235 234 231 226 226 228 230 230 228 224 219 217 218 220 222 222 222 226 232 234 230 226 226 227 228 228 227 226 225 224 226 229 234 237 236 237 237 237 240 246 252 257 263 267 272 275 277 281 286 291 297 303 307 309 310 310
287 285 284 283 283 282 281 279 275 271 264 257 252 248 245 244 245 246 246 247 247 248 249 250 250 249 248 245 239 234 233 232 228 226 226 227 227 224 221 219 217 217 218 219 220 220 223 229 232 227 224 225 224 224 225 225 224 225 226 226 228 232 233 233 234 235 235 239 245 252 260 266 271 274 275 278 283 287 292 299 304 307 308 308 308
285 282 281 281 280 281 280 278 275 271 267 263 258 253 249 246 245 246 246 246 247 247 248 249 250 250 249 246 242 235 231 232 230 225 223 225 226 224 221 221 221 219 218 218 219 219 220 226 230 228 225 224 224 224 225 226 227 228 229 228 229 231 231 232 233 232 234 239 246 255 263 269 272 275 277 280 284 289 293 300 305 307 307 307 306
283 281 279 278 278 278 278 277 274 271 267 264 261 257 254 249 246 245 244 245 246 247 247 248 249 250 250 247 243 237 231 231 230 226 222 222 224 225 224 222 222 222 219 218 219 219 221 226 229 228 225 224 225 225 225 225 226 228 228 229 231 231 230 231 232 232 236 243 250 258 265 270 272 275 278 281 285 290 296 301 304 306 306 305 303
281 280 279 279 279 279 279 278 276 273 269 265 262 258 255 251 248 245 244 243 244 246 247 247 247 249 250 247 243 238 232 229 229 228 225 222 222 223 224 223 224 224 222 221 221 220 222 227 229 227 225 224 225 225 224 222 224 226 227 230 232 231 229 229 231 234 239 245 253 259 263 268 272 276 279 282 285 291 297 301 304 305 304 302 301
281 280 280 281 282 282 282 281 279 277 273 269 264 259 255 251 248 245 244 242 242 243 245 246 246 246 247 246 244 239 233 229 228 228 226 223 221 221 222 225 226 225 223 223 223 222 224 228 229 228 226 224 224 225 222 220 224 228 229 231 231 229 227 229 231 234 240 246 251 257 262 267 273 277 280 283 288 292 297 301 303 303 301 300 300
280 280 281 282 283 284 285 284 281 278 275 272 268 262 256 252 248 245 243 241 240 241 243 244 244 244 244 244 243 239 233 229 227 227 226 224 222 220 219 222 226 226 225 223 223 224 227 231 232 231 228 224 223 224 221 220 227 231 230 231 232 229 228 231 233 235 241 245 248 253 261 268 273 278 281 284 289 293 297 301 302 301 299 299 299
281 280 281 282 284 287 288 287 283 279 275 272 269 265 259 253 248 245 243 241 239 239 240 241 242 241 241 241 242 239 233 229 227 225 225 225 224 220 218 220 224 225 226 226 225 225 227 229 230 230 230 226 224 225 224 226 234 236 230 229 232 233 233 234 237 241 245 246 247 252 262 268 273 277 280 285 289 293 298 300 300 298 298 298 298
282 282 283 285 287 289 289 288 285 279 274 270 267 263 258 252 247 243 242 240 238 236 237 238 239 239 238 238 240 238 233 229 227 225 224 224 224 222 218 218 222 224 226 228 227 224 223 224 224 225 227 227 226 226 225 228 235 235 228 227 232 236 236 235 238 244 248 249 250 256 264 268 271 275 280 285 289 293 297 299 297 296 296 297 298
286 286 287 288 289 290 290 288 285 279 274 268 265 260 254 248 243 241 240 239 237 235 235 236 236 237 236 235 236 235 232 229 228 227 224 223 224 223 218 216 219 223 225 226 225 222 221 222 222 220 222 224 225 224 225 231 238 235 225 223 228 234 237 236 238 243 247 250 253 258 264 267 271 276 281 286 289 293 297 296 295 295 295 296 298
290 290 289 289 290 291 290 287 283 278 273 267 261 256 250 244 239 237 237 238 236 234 233 233 234 235 234 233 233 232 231 229 228 227 225 223 224 224 221 217 218 220 222 223 224 222 220 222 221 219 220 224 224 224 228 234 239 234 223 221 224 231 237 238 239 242 246 250 253 258 263 267 272 277 280 285 289 293 295 294 292 293 294 296 297
294 293 293 292 292 291 288 284 280 276 273 267 260 253 246 241 237 234 234 235 235 233 231 231 232 233 233 232 231 231 230 230 230 227 224 223 224 225 223 220 219 219 219 220 222 221 221 223 221 217 220 223 223 225 231 235 234 230 223 222 224 231 236 238 239 240 242 247 252 257 264 269 273 276 280 285 290 292 293 292 291 292 294 295 296
299 298 297 295 293 290 284 279 277 275 273 268 260 251 243 238 235 233 232 233 234 233 231 229 230 231 232 231 232 231 230 231 232 228 224 222 223 225 223 221 220 219 217 218 221 222 224 226 221 217 220 222 222 227 233 233 229 228 227 226 228 231 234 236 238 238 240 246 253 259 265 270 273 277 282 287 290 290 290 290 290 292 294 295 295
Height
3166 3167 3168 3170 3171 3172 3173 3174 3175 3176 3176 3176 3177 3177 3179 3180 3181 3182 3183 3184 3186 3187 3188 3189 3190 3191 3192 3194 3195 3197 3198 3198 3199 3200 3201 3202 3204 3205 3206 3207 3207 3208 3208 3209 3210 3211 3212 3213 3213 3214 3214 3214 3214 3214 3215 3215 3215 3214 3214 3214 3214 3214 3214 3213 3213 3212 3212 3211 3211 3210 3209 3208 3208 3207 3206 3205 3204 3203 3201 3200 3198 3197 3195 3194 3192
3165 3165 3166 3168 3170 3170 3172 3173 3174 3175 3175 3175 3176 3177 3178 3179 3179 3181 3182 3184 3185 3186 3187 3188 3189 3190 3191 3192 3194 3195 3196 3197 3198 3199 3200 3201 3202 3203 3204 3205 3206 3207 3207 3208 3209 3210 3210 3211 3212 3213 3213 3213 3214 3214 3214 3214 3214 3214 3214 3214 3213 3213 3213 3212 3212 3212 3211 3210 3210 3209 3208 3208 3207 3206 3205 3204 3203 3202 3200 3199 3198 3196 3195 3193 3192
3164 3164 3165 3167 3169 3169 3171 3172 3172 3173 3174 3175 3175 3176 3176 3177 3178 3179 3181 3183 3184 3185 3187 3188 3189 3189 3190 3191 3192 3194 3195 3195 3196 3197 3198 3199 3200 3201 3203 3203 3204 3205 3206 3207 3208 3208 3209 3210 3211 3211 3212 3212 3213 3213 3213 3213 3213 3213 3213 3213 3213 3212 3212 3212 3211 3211 3210 3210 3209 3208 3207 3207 3206 3205 3204 3203 3202 3201 3199 3198 3197 3196 3194 3193 3192
3163 3163 3164 3166 3167 3169 3170 3170 3171 3172 3173 3173 3174 3175 3175 3175 3176 3178 3179 3181 3183 3184 3185 3187 3188 3188 3189 3190 3191 3192 3193 3194 3195 3195 3196 3197 3198 3200 3201 3202 3203 3204 3205 3205 3206 3207 3207 3208 3209 3210 3210 3211 3212 3212 3212 3212 3213 3213 3213 3212 3212 3212 3212 3211 3211 3210 3210 3209 3209 3208 3207 3206 3205 3204 3203 3202 3201 3200 3198 3197 3196 3195 3193 3192 3191
3160 3161 3163 3164 3165 3167 3168 3169 3170 3170 3171 3171 3172 3173 3174 3174 3175 3176 3178 3179 3181 3182 3184 3185 3186 3187 3188 3189 3190 3191 3192 3192 3193 3194 3194 3195 3196 3198 3199 3199 3200 3201 3203 3204 3204 3205 3206 3207 3208 3208 3209 3210 3210 3211 3211 3211 3212 3212 3212 3212 3211 3211 3211 3211 3210 3210 3209 3209 3208 3207 3206 3205 3204 3203 3202 3201 3200 3199 3198 3197 3195 3194 3193 3192 3190
3158 3159 3160 3163 3164 3165 3166 3167 3168 3168 3169 3169 3170 3172 3173 3174 3175 3175 3176 3177 3178 3180 3181 3183 3184 3185 3186 3187 3188 3189 3190 3191 3191 3192 3193 3194 3194 3196 3197 3197 3198 3199 3200 3201 3203 3203 3204 3205 3206 3207 3208 3208 3209 3210 3210 3211 3210 3210 3210 3211 3211 3211 3210 3210 3209 3209 3208 3208 3207 3206 3205 3204 3203 3202 3201 3200 3199 3198 3197 3196 3195 3193 3192 3191 3190
3156 3157 3158 3160 3162 3164 3165 3166 3166 3166 3167 3167 3168 3170 3171 3173 3174 3174 3175 3176 3177 3178 3179 3181 3182 3183 3184 3185 3186 3187 3188 3189 3189 3190 3191 3192 3193 3193 3194 3195 3196 3197 3198 3199 3200 3201 3203 3204 3205 3206 3206 3207 3208 3209 3209 3209 3209 3209 3209 3210 3210 3210 3209 3209 3208 3208 3207 3207 3206 3206 3205 3204 3203 3202 3201 3200 3199 3198 3197 3195 3194 3193 3192 3191 3189
3153 3155 3156 3157 3159 3161 3163 3164 3164 3164 3165 3166 3167 3168 3169 3171 3172 3173 3174 3175 3175 3176 3177 3178 3180 3181 3182 3183 3184 3185 3186 3187 3188 3188 3189 3190 3191 3191 3192 3193 3194 3195 3196 3197 3198 3199 3200 3202 3203 3204 3205 3206 3207 3207 3208 3208 3208 3208 3208 3208 3208 3209 3208 3208 3207 3207 3206 3206 3205 3205 3204 3203 3202 3201 3200 3199 3198 3197 3196 3195 3194 3193 3191 3190 3188
3151 3152 3153 3155 3157 3158 3160 3162 3162 3163 3163 3164 3165 3166 3167 3168 3170 3171 3173 3174 3174 3175 3176 3176 3177 3179 3180 3180 3181 3182 3184 3185 3186 3186 3187 3188 3189 3190 3191 3191 3192 3193 3194 3195 3196 3197 3198 3200 3201 3202 3203 3204 3205 3206 3206 3206 3206 3206 3207 3207 3207 3207 3207 3207 3206 3206 3205 3205 3204 3203 3203 3202 3201 3200 3199 3198 3197 3196 3195 3194 3193 3192 3191 3189 3187
3148 3149 3150 3152 3154 3156 3158 3159 3160 3161 3162 3163 3164 3165 3165 3166 3168 3169 3171 3173 3173 3173 3174 3174 3175 3176 3177 3178 3179 3180 3181 3182 3183 3184 3185 3186 3186 3188 3189 3190 3191 3191 3192 3193 3194 3195 3196 3198 3199 3200 3202 3202 3203 3204 3205 3205 3205 3205 3205 3205 3205 3205 3205 3205 3205 3204 3204 3203 3203 3202 3201 3200 3200 3199 3198 3197 3196 3195 3194 3193 3192 3191 3190 3188 3186
3146 3147 3148 3150 3151 3153 3154 3156 3157 3158 3160 3161 3162 3163 3164 3165 3166 3167 3169 3171 3172 3171 3171 3172 3173 3173 3174 3175 3176 3177 3178 3179 3180 3181 3183 3184 3185 3186 3187 3188 3189 3190 3190 3191 3192 3193 3194 3196 3197 3198 3200 3201 3201 3202 3203 3203 3203 3203 3204 3204 3204 3204 3204 3203 3203 3203 3203 3202 3201 3201 3200 3199 3199 3198 3197 3196 3195 3194 3193 3192 3192 3190 3189 3187 3185
3142 3144 3146 3146 3147 3149 3150 3152 3154 3155 3157 3158 3160 3160 3161 3163 3164 3165 3166 3168 3169 3169 3169 3170 3171 3171 3172 3173 3174 3174 3175 3176 3177 3178 3180 3181 3182 3184 3185 3186 3187 3187 3189 3189 3190 3191 3192 3194 3195 3196 3198 3199 3199 3200 3201 3201 3201 3201 3202 3202 3202 3202 3202 3202 3201 3201 3201 3201 3200 3199 3198 3198 3197 3197 3196 3195 3194 3194 3193 3192 3191 3189 3188 3186 3184
3139 3140 3142 3144 3144 3146 3147 3148 3151 3152 3154 3155 3157 3157 3158 3159 3161 3162 3163 3165 3166 3166 3166 3168 3169 3169 3170 3171 3171 3172 3173 3173 3174 3175 3176 3178 3180 3181 3182 3183 3184 3185 3186 3188 3189 3189 3190 3192 3193 3194 3195 3196 3197 3198 3199 3198 3198 3199 3200 3200 3200 3200 3200 3200 3200 3200 3199 3199 3198 3198 3197 3197 3196 3196 3195 3194 3194 3193 3192 3191 3190 3188 3186 3185 3183
3135 3136 3139 3140 3141 3142 3143 3145 3147 3149 3150 3152 3153 3153 3155 3156 3157 3159 3160 3161 3162 3163 3164 3165 3166 3167 3168 3169 3168 3169 3170 3171 3171 3172 3174 3175 3177 3178 3179 3180 3182 3183 3184 3185 3186 3187 3188 3189 3191 3192 3193 3194 3195 3195 3196 3196 3196 3196 3197 3198 3198 3198 3198 3198 3198 3198 3198 3197 3196 3196 3195 3195 3195 3194 3194 3193 3193 3192 3191 3190 3188 3187 3185 3183 3182
3131 3133 3134 3136 3138 3139 3140 3141 3143 3145 3146 3147 3148 3150 3152 3152 3153 3155 3157 3157 3157 3159 3160 3161 3163 3164 3165 3166 3166 3167 3167 3168 3169 3171 3172 3173 3173 3174 3176 3177 3179 3180 3181 3182 3183 3184 3185 3186 3188 3189 3191 3192 3192 3193 3193 3193 3193 3194 3195 3195 3196 3196 3196 3196 3196 3196 3196 3195 3195 3194 3194 3193 3193 3193 3193 3192 3192 3191 3190 3188 3187 3186 3184 3182 3180
3127 3129 3130 3132 3134 3135 3136 3137 3139 3141 3142 3143 3144 3146 3149 3149 3150 3152 3153 3153 3154 3155 3157 3158 3160 3161 3162 3163 3164 3164 3164 3165 3167 3169 3170 3170 3170 3172 3173 3174 3176 3177 3178 3179 3180 3181 3182 3184 3185 3187 3188 3189 3190 3190 3190 3190 3190 3191 3192 3193 3193 3193 3194 3194 3194 3194 3194 3193 3193 3192 3192 3192 3192 3192 3191 3191 3190 3189 3188 3187 3185 3184 3183 3181 3179
3123 3125 3126 3128 3129 3131 3132 3133 3134 3136 3137 3139 3140 3143 3145 3145 3146 3148 3149 3149 3150 3152 3153 3154 3156 3157 3158 3160 3161 3162 3163 3164 3165 3166 3166 3166 3167 3168 3169 3170 3172 3173 3174 3175 3176 3177 3179 3181 3182 3183 3185 3186 3187 3187 3187 3187 3187 3188 3189 3190 3191 3191 3191 3192 3192 3192 3191 3191 3191 3190 3190 3190 3190 3190 3190 3190 3189 3188 3186 3185 3184 3183 3181 3180 3178
3119 3120 3122 3123 3125 3126 3128 3129 3130 3131 3133 3134 3136 3139 3140 3141 3143 3144 3145 3146 3147 3148 3149 3151 3153 3154 3155 3156 3158 3159 3161 3162 3162 3162 3163 3163 3164 3165 3165 3167 3168 3169 3170 3172 3173 3174 3176 3177 3178 3180 3182 3183 3183 3184 3184 3184 3185 3186 3187 3187 3188 3188 3189 3189 3189 3189 3189 3189 3189 3188 3188 3188 3188 3188 3188 3188 3187 3186 3185 3183 3182 3181 3179 3178 3177
3115 3116 3117 3118 3120 3121 3123 3124 3126 3127 3128 3129 3131 3134 3136 3137 3139 3140 3141 3142 3143 3145 3147 3148 3149 3149 3152 3153 3154 3156 3158 3159 3159 3160 3160 3160 3161 3162 3162 3163 3164 3166 3167 3168 3169 3170 3172 3173 3175 3177 3178 3179 3180 3180 3180 3181 3182 3183 3184 3185 3185 3186 3186 3187 3187 3187 3187 3187 3187 3186 3186 3186 3186 3186 3186 3186 3185 3184 3183 3181 3180 3178 3177 3176 3175
3111 3112 3113 3114 3115 3116 3118 3119 3121 3123 3124 3125 3126 3128 3131 3132 3133 3135 3136 3137 3138 3141 3144 3145 3145 3146 3149 3150 3151 3152 3154 3156 3156 3158 3158 3158 3158 3158 3159 3160 3161 3162 3163 3164 3166 3166 3168 3170 3172 3173 3174 3175 3176 3176 3177 3178 3179 3180 3180 3182 3182 3183 3184 3184 3184 3184 3185 3185 3185 3185 3184 3184 3184 3184 3184 3183 3183 3182 3181 3179 3178 3176 3175 3174 3172
3107 3107 3108 3109 3110 3111 3113 3114 3116 3118 3119 3120 3121 3123 3125 3126 3128 3130 3131 3132 3133 3136 3139 3140 3141 3143 3145 3146 3147 3148 3150 3151 3153 3154 3155 3155 3156 3155 3155 3156 3158 3159 3160 3161 3162 3163 3165 3167 3168 3169 3170 3171 3172 3173 3173 3174 3175 3176 3177 3179 3179 3180 3181 3181 3182 3182 3183 3183 3183 3183 3183 3182 3182 3182 3182 3181 3181 3180 3179 3177 3176 3175 3173 3172 3171
3103 3103 3103 3104 3105 3106 3108 3109 3111 3112 3113 3115 3116 3117 3119 3121 3123 3125 3127 3128 3128 3130 3133 3135 3136 3137 3140 3142 3143 3144 3146 3147 3149 3150 3151 3151 3154 3153 3152 3153 3155 3156 3157 3159 3160 3161 3162 3163 3164 3165 3165 3167 3168 3169 3170 3171 3172 3173 3175 3176 3176 3177 3178 3178 3179 3180 3180 3181 3181 3181 3181 3180 3180 3180 3179 3179 3179 3178 3176 3175 3174 3173 3172 3170 3169
3099 3099 3099 3100 3100 3101 3102 3104 3106 3107 3108 3110 3111 3112 3114 3115 3117 3119 3121 3122 3123 3125 3127 3130 3132 3132 3135 3137 3139 3141 3142 3143 3145 3147 3148 3148 3150 3151 3150 3151 3152 3153 3154 3156 3157 3157 3159 3159 3160 3161 3162 3163 3164 3165 3166 3167 3168 3170 3172 3173 3173 3174 3175 3176 3176 3177 3178 3178 3179 3179 3178 3178 3178 3178 3178 3177 3177 3176 3174 3173 3172 3170 3169 3168 3167
3095 3095 3095 3095 3096 3097 3097 3099 3100 3102 3104 3105 3106 3107 3108 3110 3111 3112 3114 3117 3118 3119 3120 3123 3126 3127 3129 3132 3135 3137 3138 3140 3142 3144 3145 3146 3147 3147 3147 3148 3148 3149 3150 3151 3153 3154 3155 3156 3156 3157 3158 3159 3161 3162 3163 3164 3165 3167 3169 3169 3170 3171 3172 3173 3173 3175 3175 3176 3176 3176 3176 3176 3176 3176 3176 3175 3175 3174 3172 3171 3170 3168 3167 3166 3164
3092 3092 3092 3091 3092 3092 3093 3094 3095 3096 3098 3100 3101 3102 3103 3105 3106 3107 3109 3111 3113 3114 3115 3118 3120 3122 3125 3127 3130 3133 3134 3136 3138 3139 3141 3143 3143 3144 3145 3145 3145 3145 3145 3146 3149 3150 3151 3152 3152 3153 3154 3155 3157 3158 3160 3161 3163 3165 3166 3166 3167 3168 3169 3170 3171 3172 3173 3173 3173 3174 3174 3174 3174 3174 3173 3173 3173 3171 3170 3169 3167 3166 3165 3164 3162
3089 3088 3088 3088 3088 3088 3088 3088 3089 3091 3092 3094 3097 3098 3099 3100 3101 3102 3103 3105 3107 3109 3110 3113 3115 3117 3120 3123 3125 3128 3130 3132 3134 3135 3137 3138 3139 3140 3142 3143 3142 3142 3142 3142 3144 3146 3147 3148 3148 3149 3150 3151 3153 3155 3157 3158 3160 3161 3163 3164 3164 3165 3166 3167 3168 3169 3169 3170 3171 3171 3171 3171 3172 3171 3171 3171 3170 3169 3168 3166 3165 3164 3163 3162 3160
3085 3085 3084 3084 3084 3084 3084 3084 3084 3085 3087 3089 3091 3093 3094 3095 3096 3097 3098 3100 3102 3104 3105 3108 3109 3112 3115 3117 3119 3122 3125 3127 3128 3130 3132 3134 3136 3137 3138 3139 3139 3139 3139 3139 3140 3142 3143 3143 3144 3145 3146 3148 3150 3152 3154 3155 3157 3158 3159 3160 3162 3163 3164 3164 3165 3166 3166 3167 3168 3168 3169 3169 3169 3169 3169 3168 3168 3167 3165 3164 3163 3162 3161 3160 3158
3082 3081 3081 3080 3080 3080 3080 3080 3080 3080 3081 3083 3084 3087 3088 3090 3091 3092 3093 3095 3097 3098 3100 3103 3105 3107 3109 3111 3112 3114 3118 3121 3123 3124 3127 3129 3132 3133 3135 3135 3135 3135 3136 3136 3136 3137 3137 3138 3140 3142 3143 3146 3148 3149 3150 3152 3154 3155 3156 3157 3159 3160 3161 3162 3162 3163 3164 3164 3165 3165 3166 3167 3167 3166 3166 3166 3165 3164 3163 3162 3161 3160 3159 3158 3156
3078 3077 3077 3076 3076 3076 3076 3076 3076 3076 3076 3077 3078 3080 3082 3084 3085 3087 3088 3090 3091 3093 3095 3097 3100 3102 3103 3105 3105 3107 3112 3115 3118 3120 3121 3124 3127 3129 3130 3131 3133 3133 3133 3133 3133 3133 3133 3133 3136 3138 3140 3143 3145 3145 3147 3149 3151 3152 3153 3154 3156 3157 3158 3159 3159 3160 3161 3161 3162 3163 3163 3164 3164 3164 3163 3163 3162 3161 3160 3160 3159 3158 3157 3155 3154
3073 3073 3072 3072 3071 3071 3071 3071 3072 3072 3072 3072 3073 3075 3076 3077 3079 3081 3083 3085 3086 3087 3089 3091 3094 3096 3098 3099 3100 3102 3106 3109 3112 3114 3116 3119 3122 3125 3125 3127 3129 3129 3130 3131 3131 3130 3130 3129 3132 3135 3137 3140 3141 3142 3144 3146 3147 3148 3149 3151 3153 3154 3155 3156 3156 3157 3158 3158 3159 3160 3160 3161 3161 3161 3160 3160 3160 3159 3158 3157 3156 3155 3154 3153 3151
3068 3067 3067 3067 3067 3066 3066 3066 3067 3067 3068 3068 3068 3069 3070 3071 3073 3075 3078 3079 3080 3081 3083 3086 3088 3090 3092 3093 3095 3097 3101 3103 3105 3108 3111 3114 3117 3120 3122 3123 3125 3126 3127 3128 3128 3128 3126 3126 3128 3131 3134 3137 3138 3139 3141 3142 3143 3144 3146 3149 3150 3151 3152 3152 3153 3154 3155 3156 3156 3157 3157 3158 3158 3158 3158 3157 3157 3156 3155 3155 3154 3153 3151 3150 3148
3062 3061 3061 3061 3061 3061 3061 3061 3061 3062 3062 3063 3064 3064 3065 3065 3067 3069 3072 3074 3075 3076 3078 3080 3082 3083 3085 3087 3089 3093 3096 3099 3100 3103 3105 3108 3111 3115 3118 3119 3120 3122 3123 3123 3124 3125 3123 3123 3126 3127 3130 3133 3134 3136 3137 3138 3139 3140 3143 3146 3147 3148 3149 3150 3150 3151 3152 3153 3153 3154 3154 3155 3155 3155 3155 3154 3154 3153 3152 3152 3151 3150 3148 3147 3145
3057 3056 3055 3055 3055 3055 3056 3056 3056 3056 3057 3057 3058 3059 3059 3060 3061 3063 3066 3068 3069 3070 3072 3073 3075 3077 3078 3080 3084 3088 3091 3093 3095 3097 3100 3102 3105 3109 3113 3115 3116 3118 3119 3120 3121 3122 3121 3121 3122 3122 3126 3129 3130 3131 3133 3134 3136 3137 3140 3143 3144 3144 3145 3147 3147 3148 3149 3150 3151 3151 3151 3152 3152 3152 3152 3151 3151 3150 3150 3149 3148 3147 3145 3143 3142
3051 3050 3049 3048 3048 3049 3049 3050 3050 3051 3051 3051 3052 3052 3053 3054 3055 3057 3059 3061 3063 3064 3066 3067 3069 3071 3072 3074 3078 3082 3085 3087 3089 3091 3094 3097 3100 3103 3106 3110 3111 3113 3115 3116 3117 3118 3117 3117 3117 3118 3123 3125 3125 3127 3129 3131 3133 3134 3137 3139 3140 3141 3142 3143 3144 3145 3146 3147 3147 3148 3148 3149 3149 3149 3149 3148 3148 3147 3146 3146 3145 3143 3142 3140 3139
3045 3045 3044 3042 3041 3042 3042 3043 3044 3045 3045 3045 3046 3046 3047 3048 3049 3051 3052 3054 3057 3059 3060 3062 3063 3065 3066 3068 3071 3075 3078 3080 3083 3086 3088 3090 3094 3097 3100 3104 3106 3109 3110 3112 3114 3114 3112 3112 3113 3116 3120 3121 3121 3123 3125 3127 3129 3131 3134 3135 3136 3137 3139 3140 3141 3142 3143 3143 3144 3145 3145 3146 3146 3146 3146 3145 3145 3144 3143 3142 3141 3140 3139 3137 3136
3039 3038 3038 3037 3036 3035 3035 3036 3037 3038 3039 3039 3039 3040 3041 3042 3043 3044 3046 3047 3050 3052 3055 3056 3058 3059 3060 3062 3065 3068 3072 3074 3077 3080 3082 3085 3088 3091 3094 3098 3101 3104 3106 3107 3110 3111 3109 3109 3109 3112 3116 3116 3117 3120 3121 3123 3125 3127 3129 3131 3132 3134 3136 3137 3138 3139 3140 3141 3141 3142 3143 3143 3143 3143 3143 3142 3142 3141 3140 3139 3138 3137 3136 3134 3132
3033 3032 3031 3031 3030 3029 3028 3029 3030 3030 3031 3032 3033 3034 3034 3035 3036 3038 3039 3041 3043 3045 3048 3051 3052 3053 3054 3056 3058 3062 3065 3068 3071 3073 3076 3080 3083 3085 3088 3091 3095 3098 3101 3103 3106 3107 3106 3105 3105 3108 3111 3112 3113 3115 3117 3119 3121 3123 3125 3127 3128 3130 3132 3133 3135 3136 3137 3138 3139 3139 3140 3140 3140 3140 3140 3139 3138 3138 3137 3136 3135 3134 3133 3131 3129
3029 3027 3025 3024 3024 3024 3023 3023 3023 3024 3024 3025 3026 3027 3028 3028 3030 3031 3033 3034 3036 3039 3041 3044 3047 3048 3049 3050 3052 3055 3058 3061 3064 3067 3070 3075 3078 3079 3082 3086 3089 3093 3095 3098 3101 3102 3102 3100 3100 3104 3107 3108 3109 3111 3113 3115 3118 3120 3122 3123 3125 3127 3128 3130 3132 3132 3133 3135 3136 3136 3137 3137 3137 3137 3136 3136 3135 3135 3134 3133 3132 3131 3129 3128 3126
3024 3022 3020 3019 3018 3018 3018 3017 3017 3017 3018 3018 3019 3020 3021 3022 3023 3024 3026 3028 3030 3032 3034 3037 3040 3042 3043 3045 3046 3048 3051 3054 3057 3060 3064 3068 3071 3074 3077 3080 3083 3086 3090 3093 3096 3097 3097 3096 3096 3100 3103 3104 3106 3108 3110 3112 3114 3116 3118 3120 3122 3124 3126 3127 3128 3129 3130 3132 3133 3133 3133 3133 3133 3133 3133 3132 3132 3131 3131 3130 3129 3127 3126 3124 3122
3018 3017 3015 3014 3012 3012 3012 3012 3012 3012 3011 3011 3012 3013 3014 3016 3017 3018 3020 3021 3023 3025 3027 3029 3032 3035 3037 3038 3040 3041 3044 3047 3050 3054 3058 3061 3064 3068 3072 3075 3077 3079 3083 3087 3090 3092 3092 3091 3092 3095 3098 3100 3101 3103 3105 3107 3109 3111 3114 3116 3119 3121 3122 3123 3124 3125 3127 3128 3129 3130 3130 3130 3130 3130 3129 3129 3129 3128 3127 3127 3125 3124 3123 3121 3119
3012 3011 3010 3008 3007 3006 3006 3006 3006 3006 3005 3005 3006 3007 3008 3010 3011 3012 3013 3014 3016 3017 3020 3022 3024 3027 3030 3032 3033 3035 3038 3040 3044 3048 3051 3055 3059 3062 3066 3069 3072 3074 3077 3080 3084 3086 3087 3087 3088 3091 3093 3095 3097 3099 3100 3103 3107 3110 3113 3115 3116 3118 3119 3120 3121 3122 3124 3125 3126 3127 3127 3127 3126 3126 3126 3126 3125 3124 3124 3123 3122 3120 3119 3117 3115
3006 3005 3004 3003 3002 3001 3000 3000 2999 2999 2999 2999 3000 3001 3002 3004 3004 3005 3006 3007 3008 3010 3012 3015 3017 3019 3022 3025 3027 3029 3032 3034 3037 3041 3044 3048 3053 3057 3061 3064 3067 3070 3072 3074 3077 3080 3081 3081 3083 3086 3089 3091 3094 3096 3099 3102 3105 3108 3110 3112 3113 3114 3115 3116 3118 3119 3121 3122 3123 3123 3124 3123 3123 3123 3122 3122 3122 3121 3120 3120 3119 3117 3115 3113 3111
3001 3000 2998 2997 2996 2995 2994 2993 2992 2992 2992 2992 2993 2995 2996 2997 2997 2998 2998 3000 3001 3003 3004 3007 3010 3012 3015 3017 3020 3022 3025 3028 3031 3034 3038 3042 3046 3050 3055 3058 3061 3065 3067 3069 3072 3075 3076 3077 3080 3083 3086 3088 3092 3095 3097 3100 3102 3104 3106 3108 3109 3111 3112 3114 3115 3117 3118 3119 3120 3120 3120 3120 3119 3119 3118 3118 3119 3118 3117 3116 3115 3114 3112 3110 3108
2995 2994 2993 2991 2990 2989 2987 2986 2985 2984 2984 2985 2986 2987 2988 2989 2990 2990 2991 2992 2994 2995 2996 2999 3003 3006 3007 3010 3013 3016 3018 3021 3025 3028 3032 3036 3040 3044 3048 3052 3056 3059 3062 3064 3068 3071 3072 3074 3077 3080 3083 3086 3089 3092 3094 3097 3100 3102 3103 3104 3105 3108 3110 3111 3112 3113 3115 3116 3116 3116 3117 3117 3116 3115 3115 3115 3115 3115 3114 3112 3111 3110 3108 3106 3104
2989 2988 2986 2985 2983 2982 2980 2978 2977 2976 2976 2977 2978 2979 2980 2981 2982 2982 2983 2984 2986 2987 2989 2992 2995 2999 3001 3003 3006 3009 3012 3015 3019 3022 3026 3030 3034 3038 3042 3047 3050 3053 3056 3059 3063 3067 3070 3072 3075 3078 3081 3083 3086 3089 3092 3095 3097 3098 3100 3101 3103 3105 3107 3108 3109 3111 3112 3112 3112 3112 3113 3114 3113 3111 3111 3111 3111 3111 3111 3109 3107 3106 3104 3102 3100
2983 2981 2979 2978 2976 2974 2972 2969 2967 2966 2966 2967 2969 2971 2972 2973 2974 2974 2975 2976 2977 2979 2982 2985 2988 2991 2994 2997 2999 3003 3006 3009 3012 3016 3020 3024 3028 3032 3037 3041 3044 3047 3051 3055 3058 3063 3066 3068 3071 3075 3078 3081 3084 3088 3091 3092 3093 3095 3097 3099 3101 3103 3104 3105 3106 3108 3109 3108 3108 3109 3109 3110 3110 3108 3107 3108 3107 3107 3107 3106 3104 3103 3101 3098 3097
2976 2974 2972 2970 2968 2965 2963 2960 2957 2955 2955 2957 2959 2961 2962 2964 2965 2966 2966 2967 2969 2971 2974 2977 2981 2984 2987 2990 2993 2997 3000 3003 3007 3010 3014 3018 3022 3026 3031 3035 3039 3043 3046 3050 3054 3058 3061 3064 3067 3070 3074 3078 3081 3084 3086 3087 3088 3091 3094 3095 3096 3097 3099 3101 3102 3103 3104 3105 3105 3106 3105 3105 3106 3105 3104 3105 3104 3103 3104 3103 3100 3099 3097 3095 3093
2970 2967 2964 2962 2959 2956 2954 2951 2947 2944 2944 2946 2947 2949 2952 2954 2955 2956 2957 2958 2960 2963 2967 2970 2974 2978 2981 2984 2988 2991 2994 2997 3001 3004 3009 3013 3016 3020 3025 3029 3033 3038 3041 3044 3048 3053 3056 3059 3062 3065 3069 3072 3075 3078 3081 3082 3083 3086 3088 3089 3091 3092 3094 3096 3098 3099 3101 3102 3103 3102 3101 3101 3103 3101 3100 3101 3100 3099 3100 3099 3097 3095 3093 3091 3089
2963 2960 2956 2953 2949 2946 2942 2940 2936 2933 2933 2934 2936 2938 2941 2944 2945 2947 2948 2950 2952 2955 2959 2964 2968 2971 2974 2978 2982 2985 2989 2992 2995 2998 3003 3008 3011 3014 3019 3024 3028 3031 3035 3039 3044 3047 3050 3053 3057 3061 3064 3067 3070 3074 3077 3078 3079 3080 3082 3084 3086 3088 3090 3092 3094 3095 3097 3098 3099 3099 3097 3098 3099 3098 3097 3097 3097 3096 3096 3096 3093 3091 3089 3087 3085
2955 2952 2948 2943 2939 2935 2931 2929 2926 2923 2922 2924 2925 2927 2931 2934 2935 2937 2939 2941 2944 2948 2953 2957 2961 2964 2968 2972 2976 2980 2984 2987 2989 2993 2997 3002 3006 3009 3012 3017 3021 3024 3028 3034 3039 3042 3045 3049 3052 3055 3059 3063 3066 3069 3072 3073 3074 3076 3078 3080 3083 3085 3086 3088 3090 3092 3093 3094 3095 3095 3094 3094 3096 3095 3093 3094 3093 3092 3092 3091 3090 3088 3086 3084 3082
2947 2943 2938 2932 2928 2925 2922 2920 2918 2915 2913 2914 2916 2918 2921 2924 2925 2928 2931 2933 2936 2941 2946 2950 2954 2957 2961 2966 2969 2974 2979 2982 2984 2988 2992 2997 3000 3003 3007 3011 3015 3019 3023 3029 3033 3037 3040 3044 3048 3051 3054 3058 3061 3064 3067 3068 3069 3071 3074 3077 3079 3081 3083 3084 3086 3088 3089 3090 3091 3091 3091 3091 3092 3091 3090 3090 3089 3089 3088 3087 3085 3084 3082 3080 3079